INTELSAT 33E (IS-33E)

Last updated on Jan. 23, 2021, 7:15 a.m. UTC

1 41748U 16053B   21022.86193757  .00000061  00000-0  00000-0 0  9999
2 41748   0.0163  43.4060 0001930 249.7830 199.5044  1.00271974 16481
UTC
Height (km)
Latitude
Longitude
Inclination
Orbital Period
UTC large
Height (km)
Speed (km/s)
/
Latitude / Longitude
Inclination (degrees)
Orbital Period (minutes)
Azimuth
Elevation
Range (km)
Doppler Factor
iOS Compass Heading
iOS Angle

Next 30 passes for location: Hong Kong

Rise time Rise Azimuth (degrees) Set time Set Azimuth (degrees) Duration Max altitude (degrees)

No matching passes for this satellites